Christchurch, New Zealand

3:42 PM NZDT on February 26, 2017 (GMT +1300)
Christchurch

Weather History for 93780 - November, 2013

Change the Weather History Date:

Saturday, November 30, 2013

  Actual Average Record
Temperature  
Mean Temperature 60 °F -  
Max Temperature 71 °F 66 °F - ()
Min Temperature 50 °F 48 °F - ()
Degree Days  
Heating Degree Days 4    
Growing Degree Days 10 (Base 50)    
Moisture  
Dew Point 43 °F    
Average Humidity 52    
Maximum Humidity 77    
Minimum Humidity 27    
Precipitation  
Precipitation 0.00 in - - ()
Sea Level Pressure  
Sea Level Pressure 29.33 in    
Wind  
Wind Speed 10 mph ()    
Max Wind Speed 29 mph    
Max Gust Speed 43 mph    
Visibility 6.2 miles    
Events Rain    
T = Trace of Precipitation, MM = Missing Value Source: Averaged Metar Reports

Daily Weather History Graph

Daily Weather History Graph

Search for Another Location

Airport or City:

Trip Planner

Search our weather history database for the weather conditions in past years. The results will help you decide how hot, cold, wet, or windy it might be!

Date:

Astronomy

Nov. 30, 2013 Rise Set
Actual Time 5:44 AM NZDT 8:52 PM NZDT
Civil Twilight 5:10 AM NZDT 9:27 PM NZDT
Nautical Twilight 4:25 AM NZDT 10:11 PM NZDT
Astronomical Twilight 3:32 AM NZDT 11:05 PM NZDT
Moon 3:38 AM NZDT (11/30) 5:31 PM NZDT (11/30)
Length of Visible Light 16h 16m
Length of Day
15h 07m
Waning Crescent, 12% of the Moon is Illuminated
Nov 30
Waning Crescent
Dec 3
New
Dec 10
First Quarter
Dec 17
Full
Dec 26
Last Quarter

Hourly Weather History & Observations

Time (NZDT) Temp. Dew Point Humidity Pressure Visibility Wind Dir Wind Speed Gust Speed Precip Events Conditions
12:00 AM 62.6 °F 48.2 °F 59% 29.21 in 6.2 mi South 4.6 mph - N/A   Scattered Clouds
12:30 AM 66.2 °F 44.6 °F 46% 29.21 in 6.2 mi West 6.9 mph - N/A   Partly Cloudy
1:00 AM 66.2 °F 44.6 °F 46% 29.21 in 6.2 mi ESE 3.5 mph - N/A   Scattered Clouds
1:30 AM 66.2 °F 44.6 °F 46% 29.21 in 6.2 mi WSW 9.2 mph - N/A   Unknown
2:00 AM 68.0 °F 44.6 °F 43% 29.18 in 6.2 mi NNE 11.5 mph 25.3 mph N/A   Scattered Clouds
2:30 AM 66.2 °F 44.6 °F 46% 29.21 in 6.2 mi West 8.1 mph - N/A   Mostly Cloudy
3:00 AM 64.4 °F 44.6 °F 49% 29.18 in 6.2 mi SSE 4.6 mph - N/A   Mostly Cloudy
3:30 AM 64.4 °F 44.6 °F 49% 29.18 in 6.2 mi WSW 5.8 mph - N/A   Mostly Cloudy
4:00 AM 59.0 °F 48.2 °F 67% 29.18 in 6.2 mi NNE 6.9 mph - N/A   Mostly Cloudy
4:30 AM 62.6 °F 46.4 °F 55% 29.18 in 6.2 mi SSE 3.5 mph - N/A   Mostly Cloudy
5:00 AM 62.6 °F 46.4 °F 55% 29.21 in 6.2 mi SW 5.8 mph - N/A   Overcast
5:30 AM 64.4 °F 46.4 °F 52% 29.21 in 6.2 mi SW 13.8 mph - N/A   Overcast
6:00 AM 62.6 °F 46.4 °F 55% 29.24 in 6.2 mi West 11.5 mph - N/A   Mostly Cloudy
6:30 AM 60.8 °F 48.2 °F 63% 29.24 in 6.2 mi West 12.7 mph - N/A   Partly Cloudy
7:00 AM 60.8 °F 48.2 °F 63% 29.24 in 6.2 mi West 12.7 mph - N/A   Partly Cloudy
7:30 AM 59.0 °F 50.0 °F 72% 29.27 in 6.2 mi West 10.4 mph - N/A Rain Light Rain Showers
8:00 AM 59.0 °F 51.8 °F 77% 29.27 in 6.2 mi WNW 5.8 mph - N/A Rain Light Rain Showers
8:30 AM 59.0 °F 50.0 °F 72% 29.27 in 6.2 mi West 9.2 mph - N/A Rain Light Rain
9:00 AM 59.0 °F 46.4 °F 63% 29.27 in 6.2 mi NW 12.7 mph - N/A   Unknown
9:30 AM 60.8 °F 48.2 °F 63% 29.27 in 6.2 mi NW 11.5 mph - N/A   Unknown
10:00 AM 62.6 °F 48.2 °F 59% 29.27 in 6.2 mi NW 12.7 mph - N/A   Unknown
10:30 AM 62.6 °F 46.4 °F 55% 29.27 in 6.2 mi NNW 11.5 mph - N/A   Unknown
11:00 AM 64.4 °F 44.6 °F 49% 29.30 in 6.2 mi WNW 9.2 mph - N/A   Unknown
11:30 AM 66.2 °F 44.6 °F 46% 29.30 in 6.2 mi WNW 16.1 mph - N/A   Unknown
12:00 PM 68.0 °F 44.6 °F 43% 29.30 in 6.2 mi West 11.5 mph - N/A   Unknown
12:30 PM 68.0 °F 41.0 °F 37% 29.30 in 6.2 mi NW 16.1 mph 31.1 mph N/A   Unknown
1:00 PM 69.8 °F 39.2 °F 33% 29.30 in 6.2 mi NW 18.4 mph - N/A   Unknown
1:30 PM 69.8 °F 37.4 °F 31% 29.30 in 6.2 mi NW 21.9 mph - N/A   Unknown
2:00 PM 71.6 °F 39.2 °F 31% 29.30 in 6.2 mi NW 21.9 mph 39.1 mph N/A   Unknown
2:30 PM 69.8 °F 37.4 °F 31% 29.30 in 6.2 mi WNW 25.3 mph 36.8 mph N/A   Unknown
3:00 PM 69.8 °F 33.8 °F 27% 29.33 in 6.2 mi WNW 28.8 mph - N/A   Unknown
3:30 PM 69.8 °F 33.8 °F 27% 29.33 in 6.2 mi WNW 25.3 mph - N/A   Unknown
4:00 PM 69.8 °F 33.8 °F 27% 29.36 in 6.2 mi WNW 28.8 mph 42.6 mph N/A   Unknown
4:30 PM 68.0 °F 33.8 °F 28% 29.36 in 6.2 mi WNW 24.2 mph - N/A   Unknown
5:00 PM 68.0 °F 33.8 °F 28% 29.36 in 6.2 mi WNW 26.5 mph - N/A   Unknown
5:30 PM 68.0 °F 33.8 °F 28% 29.39 in 6.2 mi WNW 19.6 mph 34.5 mph N/A   Unknown
6:00 PM 66.2 °F 35.6 °F 32% 29.42 in 6.2 mi WNW 19.6 mph 33.4 mph N/A   Unknown
6:30 PM 62.6 °F 35.6 °F 37% 29.42 in 6.2 mi West 13.8 mph 28.8 mph N/A   Unknown
7:00 PM 62.6 °F 42.8 °F 48% 29.44 in 6.2 mi West 12.7 mph - N/A   Unknown
7:30 PM 57.2 °F 46.4 °F 67% 29.47 in 6.2 mi SSW 16.1 mph - N/A   Unknown
8:00 PM 55.4 °F 44.6 °F 67% 29.47 in 6.2 mi SW 11.5 mph - N/A   Unknown
8:30 PM 51.8 °F 44.6 °F 76% 29.50 in 6.2 mi SSW 16.1 mph - N/A   Unknown
9:00 PM 50.0 °F 42.8 °F 76% 29.56 in 6.2 mi South 12.7 mph - N/A   Unknown
9:30 PM 50.0 °F 42.8 °F 76% 29.56 in 6.2 mi South 11.5 mph - N/A   Mostly Cloudy
10:00 PM 51.8 °F 42.8 °F 71% 29.59 in 6.2 mi SW 3.5 mph - N/A   Mostly Cloudy
10:30 PM 50.0 °F 42.8 °F 76% 29.62 in 6.2 mi SSW 9.2 mph - N/A   Mostly Cloudy
11:00 PM 50.0 °F 42.8 °F 76% 29.62 in 6.2 mi SW 3.5 mph - N/A   Overcast
11:30 PM 50.0 °F 42.8 °F 76% 29.65 in 6.2 mi West 3.5 mph - N/A   Mostly Cloudy